�������l�o���
Date,Time,MP-1(��Sv/h),MP-2(��Sv/h),MP-3(��Sv/h),MP-4(��Sv/h),MP-5(��Sv/h),MP-6(��Sv/h),MP-7(��Sv/h),MP-8(��Sv/h),����,����(m/s),���J
2021/11/25,00:00,0.578,0.869,0.555,1.068,0.750,0.355,0.613,0.580,��쐼,4.0,��
2021/11/25,00:10,0.581,0.869,0.552,1.068,0.750,0.353,0.613,0.581,��쐼,5.0,��
2021/11/25,00:20,0.581,0.870,0.553,1.068,0.751,0.353,0.615,0.580,��쐼,5.5,��
2021/11/25,00:30,0.579,0.868,0.554,1.068,0.749,0.354,0.612,0.579,��쐼,6.6,��
2021/11/25,00:40,0.581,0.869,0.552,1.066,0.752,0.355,0.616,0.578,��쐼,6.2,��
2021/11/25,00:50,0.578,0.871,0.556,1.066,0.754,0.354,0.614,0.580,��쐼,7.4,��
2021/11/25,01:00,0.580,0.869,0.554,1.069,0.751,0.354,0.614,0.578,�쐼,6.2,��
2021/11/25,01:10,0.579,0.871,0.555,1.068,0.752,0.354,0.614,0.580,�쐼,7.2,��
2021/11/25,01:20,0.580,0.868,0.555,1.067,0.750,0.354,0.614,0.578,�쐼,7.1,��
2021/11/25,01:30,0.581,0.868,0.554,1.069,0.751,0.354,0.614,0.580,�쐼,6.8,��
2021/11/25,01:40,0.579,0.870,0.554,1.067,0.749,0.356,0.612,0.578,��쐼,4.9,��
2021/11/25,01:50,0.580,0.870,0.554,1.068,0.750,0.352,0.615,0.579,��쐼,5.8,��
2021/11/25,02:00,0.580,0.870,0.556,1.068,0.751,0.354,0.613,0.579,��,5.6,��
2021/11/25,02:10,0.580,0.870,0.556,1.069,0.752,0.354,0.615,0.580,��,5.6,��
2021/11/25,02:20,0.580,0.868,0.553,1.069,0.751,0.355,0.614,0.580,��쐼,5.1,��
2021/11/25,02:30,0.581,0.870,0.555,1.066,0.751,0.355,0.614,0.580,��,5.0,��
2021/11/25,02:40,0.579,0.869,0.554,1.070,0.751,0.354,0.614,0.578,��,5.3,��
2021/11/25,02:50,0.580,0.869,0.554,1.068,0.751,0.355,0.613,0.579,��,4.4,��
2021/11/25,03:00,0.581,0.870,0.554,1.068,0.753,0.354,0.614,0.580,��,4.2,��
2021/11/25,03:10,0.582,0.869,0.555,1.066,0.751,0.354,0.614,0.579,��,4.1,��
2021/11/25,03:20,0.581,0.868,0.554,1.068,0.750,0.355,0.614,0.580,��쐼,4.5,��
2021/11/25,03:30,0.580,0.869,0.555,1.066,0.752,0.354,0.613,0.580,��,6.7,��
2021/11/25,03:40,0.580,0.870,0.556,1.067,0.753,0.354,0.614,0.579,��쐼,6.4,��
2021/11/25,03:50,0.583,0.868,0.555,1.067,0.750,0.354,0.614,0.580,��쐼,6.3,��
2021/11/25,04:00,0.581,0.870,0.556,1.069,0.751,0.355,0.613,0.580,��쐼,5.8,��
2021/11/25,04:10,0.580,0.869,0.555,1.070,0.749,0.353,0.613,0.580,��,5.5,��
2021/11/25,04:20,0.582,0.869,0.556,1.067,0.752,0.355,0.615,0.580,��,5.2,��
2021/11/25,04:30,0.582,0.872,0.555,1.069,0.751,0.353,0.613,0.580,��,5.8,��
2021/11/25,04:40,0.581,0.870,0.556,1.068,0.753,0.354,0.614,0.578,��,5.8,��
2021/11/25,04:50,0.581,0.869,0.555,1.069,0.752,0.355,0.613,0.579,��쐼,6.6,��
2021/11/25,05:00,0.580,0.869,0.555,1.069,0.752,0.353,0.613,0.581,��쐼,5.7,��
2021/11/25,05:10,0.580,0.869,0.555,1.069,0.750,0.356,0.615,0.580,��쐼,5.5,��
2021/11/25,05:20,0.580,0.868,0.553,1.067,0.752,0.355,0.615,0.580,��쐼,5.9,��
2021/11/25,05:30,0.580,0.868,0.555,1.068,0.751,0.354,0.614,0.579,��쐼,5.9,��
2021/11/25,05:40,0.580,0.871,0.555,1.070,0.751,0.354,0.615,0.580,��쐼,6.1,��
2021/11/25,05:50,0.580,0.869,0.557,1.067,0.750,0.352,0.613,0.581,��쐼,7.9,��
2021/11/25,06:00,0.580,0.869,0.556,1.066,0.752,0.355,0.612,0.578,��쐼,7.4,��
2021/11/25,06:10,0.581,0.868,0.555,1.069,0.751,0.354,0.615,0.581,��쐼,7.9,��
2021/11/25,06:20,0.580,0.869,0.553,1.071,0.751,0.354,0.614,0.579,��쐼,7.6,��
2021/11/25,06:30,0.580,0.869,0.556,1.067,0.752,0.353,0.615,0.579,��쐼,6.2,��
2021/11/25,06:40,0.580,0.870,0.553,1.070,0.752,0.354,0.613,0.579,��쐼,5.8,��
2021/11/25,06:50,0.578,0.869,0.555,1.069,0.752,0.354,0.613,0.581,�쐼,5.8,��
2021/11/25,07:00,0.579,0.871,0.555,1.068,0.752,0.353,0.615,0.579,�쐼,4.7,��
2021/11/25,07:10,0.580,0.870,0.555,1.067,0.752,0.354,0.613,0.579,�쐼,4.3,��
2021/11/25,07:20,0.582,0.870,0.555,1.069,0.751,0.354,0.613,0.578,��쐼,4.1,��
2021/11/25,07:30,0.578,0.871,0.553,1.069,0.753,0.353,0.614,0.580,��쐼,4.7,��
2021/11/25,07:40,0.581,0.869,0.557,1.068,0.751,0.353,0.613,0.578,��쐼,4.2,��
2021/11/25,07:50,0.582,0.870,0.556,1.069,0.749,0.354,0.615,0.580,��쐼,4.8,��
2021/11/25,08:00,0.581,0.868,0.557,1.069,0.750,0.355,0.615,0.579,�쐼,4.9,��
2021/11/25,08:10,0.581,0.869,0.557,1.071,0.752,0.354,0.613,0.580,�쐼,4.7,��
2021/11/25,08:20,0.582,0.870,0.557,1.068,0.751,0.355,0.615,0.580,�쐼,4.8,��
2021/11/25,08:30,0.582,0.869,0.556,1.068,0.750,0.353,0.615,0.578,�쐼,4.3,��
2021/11/25,08:40,0.582,0.869,0.556,1.068,0.753,0.355,0.616,0.581,���쐼,3.4,��
2021/11/25,08:50,0.583,0.869,0.556,1.072,0.753,0.355,0.617,0.578,�쐼,3.1,��
2021/11/25,09:00,0.582,0.870,0.557,1.070,0.752,0.356,0.616,0.580,���쐼,1.9,��
2021/11/25,09:10,0.583,0.869,0.557,1.068,0.751,0.354,0.615,0.579,���쐼,2.2,��
2021/11/25,09:20,0.581,0.868,0.556,1.070,0.754,0.354,0.614,0.580,��,3.4,��
2021/11/25,09:30,0.583,0.867,0.556,1.068,0.753,0.356,0.613,0.581,���쐼,3.4,��
2021/11/25,09:40,0.583,0.870,0.556,1.071,0.753,0.356,0.614,0.581,�쐼,2.5,��
2021/11/25,09:50,0.583,0.866,0.558,1.070,0.752,0.357,0.613,0.581,�쐼,1.9,��
2021/11/25,10:00,0.582,0.867,0.556,1.070,0.754,0.356,0.615,0.580,���쐼,3.4,��
2021/11/25,10:10,0.582,0.864,0.557,1.069,0.754,0.355,0.616,0.581,���쐼,3.9,��
2021/11/25,10:20,0.582,0.868,0.557,1.070,0.753,0.354,0.616,0.581,�쐼,3.1,��
2021/11/25,10:30,0.581,0.867,0.556,1.070,0.751,0.354,0.613,-,�쐼,4.1,��
2021/11/25,10:40,0.582,0.863,0.557,1.071,0.752,0.353,0.614,-,���쐼,7.8,��
2021/11/25,10:50,0.581,0.865,0.556,1.069,0.752,0.355,0.615,-,�쐼,6.8,��
2021/11/25,11:00,0.582,0.866,0.558,1.068,0.751,0.354,0.614,-,�쐼,6.7,��
2021/11/25,11:10,0.585,0.868,0.557,1.073,0.753,0.354,0.616,-,�쐼,5.2,��
2021/11/25,11:20,0.584,0.865,0.558,1.070,0.752,0.355,0.614,-,�쐼,6.5,��
2021/11/25,11:30,0.584,0.866,0.557,1.072,0.752,0.355,0.614,-,�쐼,3.8,��
2021/11/25,11:40,0.582,0.870,0.558,1.070,0.754,0.354,0.614,-,�쐼,2.0,��
2021/11/25,11:50,0.583,0.866,0.558,1.072,0.752,0.354,0.615,-,�쐼,3.4,��
2021/11/25,12:00,0.581,0.870,0.558,1.070,0.752,0.356,0.614,-,�쐼,5.4,��
2021/11/25,12:10,0.582,0.868,0.558,1.073,0.752,0.354,0.615,-,���쐼,6.8,��
2021/11/25,12:20,0.582,0.868,0.560,1.072,0.750,0.355,0.614,-,���쐼,5.8,��
2021/11/25,12:30,0.582,0.868,0.558,1.072,0.749,0.356,0.616,-,�쐼,4.2,��
2021/11/25,12:40,0.582,0.869,0.558,1.072,0.751,0.357,0.614,-,�쐼,4.9,��
2021/11/25,12:50,0.583,0.868,0.557,1.069,0.753,0.356,0.614,-,�쐼,3.9,��
2021/11/25,13:00,0.582,0.869,0.558,1.074,0.753,0.356,0.616,0.580,�쐼,2.3,��
2021/11/25,13:10,0.583,0.869,0.558,1.073,0.750,0.355,0.616,0.579,���쐼,2.2,��
2021/11/25,13:20,0.580,0.868,0.559,1.071,0.752,0.356,0.615,0.578,���쐼,2.5,��
2021/11/25,13:30,0.582,0.866,0.559,1.070,0.753,0.355,0.616,0.578,�쐼,3.0,��
2021/11/25,13:40,0.583,0.870,0.558,1.073,0.752,0.355,0.615,0.578,���쐼,2.0,��
2021/11/25,13:50,0.584,0.869,0.558,1.073,0.754,0.357,0.615,0.580,��,2.6,��
2021/11/25,14:00,0.584,0.869,0.559,1.074,0.753,0.356,0.615,0.578,��,2.3,��
2021/11/25,14:10,0.586,0.873,0.561,1.074,0.754,0.356,0.616,0.578,��,2.3,��
2021/11/25,14:20,0.585,0.872,0.559,1.072,0.753,0.356,0.616,0.581,��,2.8,��
2021/11/25,14:30,0.585,0.870,0.559,1.073,0.754,0.356,0.616,0.580,���k��,2.5,��
2021/11/25,14:40,0.584,0.874,0.559,1.071,0.755,0.357,0.617,0.580,�k��,3.5,��
2021/11/25,14:50,0.584,0.872,0.558,1.073,0.755,0.356,0.616,0.579,�k��,4.8,��
2021/11/25,15:00,0.582,0.872,0.557,1.072,0.756,0.356,0.616,0.580,�k�k��,4.3,��
2021/11/25,15:10,0.582,0.870,0.557,1.074,0.757,0.355,0.616,0.582,�k��,3.6,��
2021/11/25,15:20,0.582,0.870,0.558,1.073,0.754,0.357,0.616,0.582,�k��,3.7,��
2021/11/25,15:30,0.580,0.872,0.558,1.073,0.752,0.355,0.615,0.579,�k��,5.2,��
2021/11/25,15:40,0.579,0.874,0.558,1.074,0.753,0.356,0.617,0.580,�k��,4.8,��
2021/11/25,15:50,0.581,0.874,0.559,1.074,0.754,0.355,0.615,0.581,�k��,4.7,��
2021/11/25,16:00,0.581,0.874,0.558,1.071,0.752,0.356,0.615,0.582,���k��,4.1,��
2021/11/25,16:10,0.582,0.874,0.558,1.072,0.754,0.355,0.615,0.580,���k��,3.9,��
2021/11/25,16:20,0.581,0.873,0.557,1.069,0.755,0.356,0.615,0.581,-,CALM,��
2021/11/25,16:30,0.583,0.872,0.557,1.073,0.754,0.356,0.614,0.582,�쐼,0.6,��
2021/11/25,16:40,0.583,0.873,0.559,1.072,0.754,0.355,0.617,0.580,��,3.4,��
2021/11/25,16:50,0.584,0.873,0.558,1.074,0.754,0.356,0.618,0.581,���쐼,4.2,��
2021/11/25,17:00,0.585,0.873,0.559,1.072,0.755,0.356,0.616,0.580,��,6.8,��
2021/11/25,17:10,0.584,0.872,0.558,1.074,0.755,0.355,0.616,0.580,��,5.3,��
2021/11/25,17:20,0.585,0.871,0.558,1.072,0.757,0.355,0.616,0.580,��,2.3,��
2021/11/25,17:30,0.583,0.873,0.558,1.074,0.755,0.357,0.616,0.580,���k��,1.1,��
2021/11/25,17:40,0.585,0.872,0.558,1.072,0.756,0.355,0.618,0.580,���k��,1.2,��
2021/11/25,17:50,0.581,0.874,0.557,1.074,0.754,0.354,0.617,0.579,��,1.1,��
2021/11/25,18:00,0.585,0.874,0.558,1.072,0.754,0.356,0.616,0.581,���k��,1.2,��
2021/11/25,18:10,0.583,0.874,0.557,1.073,0.754,0.356,0.617,0.579,��,2.0,��
2021/11/25,18:20,0.583,0.873,0.558,1.073,0.754,0.356,0.617,0.580,�쐼,2.6,��
2021/11/25,18:30,0.583,0.873,0.558,1.076,0.754,0.355,0.617,0.580,���쐼,2.5,��
2021/11/25,18:40,0.583,0.872,0.558,1.074,0.754,0.356,0.616,0.579,���쐼,2.3,��
2021/11/25,18:50,0.583,0.873,0.558,1.073,0.754,0.356,0.614,0.582,��,2.5,��
2021/11/25,19:00,0.584,0.873,0.558,1.074,0.756,0.356,0.617,0.579,���k��,5.2,��
2021/11/25,19:10,0.584,0.873,0.557,1.075,0.755,0.355,0.617,0.580,���k��,4.2,��
2021/11/25,19:20,0.582,0.873,0.556,1.071,0.755,0.356,0.616,0.579,���k��,7.3,��
2021/11/25,19:30,0.584,0.873,0.558,1.071,0.755,0.355,0.615,0.581,���k��,6.9,��
2021/11/25,19:40,0.584,0.874,0.558,1.075,0.754,0.356,0.617,0.580,��,7.2,��
2021/11/25,19:50,0.584,0.873,0.557,1.074,0.758,0.356,0.617,0.580,���k��,9.8,�L
2021/11/25,20:00,0.582,0.875,0.558,1.075,0.755,0.356,0.617,0.582,��,10.5,�L
2021/11/25,20:10,0.583,0.873,0.558,1.074,0.755,0.356,0.616,0.580,��,10.5,�L
2021/11/25,20:20,0.583,0.871,0.557,1.073,0.755,0.356,0.617,0.581,��,10.2,��
2021/11/25,20:30,0.585,0.873,0.557,1.072,0.756,0.356,0.617,0.580,���쐼,7.7,��
2021/11/25,20:40,0.583,0.874,0.556,1.074,0.756,0.357,0.616,0.581,���쐼,5.9,��
2021/11/25,20:50,0.584,0.875,0.559,1.073,0.756,0.356,0.616,0.582,��,5.5,��
2021/11/25,21:00,0.583,0.873,0.558,1.074,0.757,0.355,0.617,0.580,��,5.6,��
2021/11/25,21:10,0.582,0.873,0.556,1.075,0.756,0.354,0.617,0.579,��,6.6,��
2021/11/25,21:20,0.584,0.875,0.557,1.074,0.754,0.354,0.618,0.579,��,8.2,��
2021/11/25,21:30,0.582,0.873,0.559,1.072,0.755,0.355,0.617,0.581,��,6.1,��
2021/11/25,21:40,0.584,0.874,0.557,1.073,0.756,0.355,0.618,0.580,��,8.0,��
2021/11/25,21:50,0.583,0.872,0.556,1.075,0.753,0.355,0.618,0.581,��,8.2,��
2021/11/25,22:00,0.584,0.875,0.558,1.075,0.755,0.355,0.617,0.581,��,9.3,��
2021/11/25,22:10,0.584,0.872,0.558,1.073,0.755,0.355,0.617,0.580,��,7.6,��
2021/11/25,22:20,0.582,0.872,0.557,1.073,0.755,0.355,0.615,0.580,��,7.9,��
2021/11/25,22:30,0.583,0.873,0.558,1.073,0.755,0.357,0.617,0.581,��,6.2,��
2021/11/25,22:40,0.583,0.872,0.556,1.074,0.755,0.355,0.618,0.580,���쐼,4.3,��
2021/11/25,22:50,0.580,0.874,0.557,1.075,0.756,0.355,0.617,0.581,��,4.7,��
2021/11/25,23:00,0.582,0.871,0.555,1.075,0.756,0.355,0.616,0.580,��,7.7,��
2021/11/25,23:10,0.583,0.875,0.558,1.075,0.754,0.356,0.617,0.580,��,6.6,��
2021/11/25,23:20,0.583,0.874,0.558,1.073,0.757,0.355,0.618,0.580,���쐼,6.7,��
2021/11/25,23:30,0.582,0.873,0.558,1.077,0.754,0.355,0.616,0.580,���쐼,5.9,��
2021/11/25,23:40,0.582,0.873,0.558,1.074,0.755,0.356,0.617,0.581,���쐼,5.7,��
2021/11/25,23:50,0.583,0.875,0.558,1.073,0.755,0.355,0.619,0.580,��,3.7,��
